Regional Weather Roundup
Issued by NWS

Home | Current Version | Previous Version | Text Only | Print | Product List | Glossary Off
Versions: 1 2 3 4 5 6 7 8 9 10 11 12 13 14 15 16 17 18 19 20 21 22 23 24 25 26 27 28 29 30 31 32 33 34 35 36 37 38 39 40 41 42 43 44 45 46 47 48 49 50

000
ASUS45 KBOU 280607
RWRCO

WEATHER ROUNDUP FOR COLORADO
NATIONAL WEATHER SERVICE DENVER/BOULDER CO
1200 AM MDT FRI AUG 28 2015

NOTE: "FAIR" INDICATES FEW OR NO CLOUDS BELOW 12000 FEET WITH NO
SIGNIFICANT WEATHER AND/OR OBSTRUCTIONS TO VISIBILITY.

COZ001>005-013-030-031-280700-
...NORTHWEST COLORADO...

CITY           SKY/WX    TMP DP  RH WIND       PRES   REMARKS
CRAIG          MOCLDY    54  50  86 CALM      30.33R
HAYDEN         NOT AVBL
MEEKER         PTCLDY    55  52  89 SE8       30.35R
MOUNT WERNER   NOT AVBL
STEAMBOAT SPGS PTCLDY    49  48  94 CALM      30.37R
WALDEN         PTCLDY    45  41  87 CALM      30.41S
$$

COZ006>008-011-280700-
...WEST CENTRAL VALLEYS...

CITY           SKY/WX    TMP DP  RH WIND       PRES   REMARKS
GRAND JUNCTION MOCLDY    66  54  65 SW7       30.22R
MONTROSE       MOCLDY    67  53  61 MISG      30.32R
EAGLE          CLOUDY    57  55  94 W8        30.38R
RIFLE          CLOUDY    59  54  83 NE3       30.31S
DELTA          CLOUDY    65  55  71 S9        30.26S
NUCLA          MOCLDY    64  52  63 SE13      30.31S
$$

COZ017>023-064>068-280700-
...SOUTHWEST COLORADO...

CITY           SKY/WX    TMP DP  RH WIND       PRES   REMARKS
DURANGO        PTCLDY    58  52  80 N5        30.29S
CORTEZ         PTCLDY    59  53  80 E5        30.26R
PAGOSA SPRINGS PTCLDY    54  53  95 CALM      30.38S
TELLURIDE      PTCLDY    52  48  87 SE7       30.52R
WOLF CREEK PAS CLEAR     45  37  76 N10       30.69S
$$

COZ009-010-012-014-032>034-037-058>063-280700-
...CENTRAL COLORADO...

CITY           SKY/WX    TMP DP  RH WIND       PRES   REMARKS
ASPEN          LGT RAIN  52  47  83 S9        30.46F
BUENA VISTA    PTCLDY    56  44  64 NW20      30.41R
COPPER MTN     CLOUDY    46  37  71 W22G29    30.66F
BERTHOUD PASS  FAIR      37  27  65 NW31G37   30.65F
COTTONWOOD PAS PTCLDY    55  41  58 W9        30.53R
GUNNISON       CLEAR     54  46  76 CALM      30.44R
KREMMLING      CLOUDY    50  45  81 N3        30.41R
LEADVILLE      CLOUDY    45  44  97 CALM      30.55F
MONARCH PASS   PTCLDY    45  36  70 W10       30.77S
SALIDA         PTCLDY    56  46  68 W5        30.45R
SUNLIGHT       CLOUDY    46  43  87 N3        30.64S
WILKERSON PASS CLEAR     45  37  76 NW8       30.63S
$$

COZ069>075-280700-
...SAN LUIS VALLEY/SANGRE DE CRISTO MOUNTAINS...

CITY           SKY/WX    TMP DP  RH WIND       PRES   REMARKS
ALAMOSA        CLOUDY    57  51  80 MISG      30.34S
LA VETA PASS   MOCLDY    46  45  93 MISG      30.53F
SAGUACHE       PTCLDY    59  46  63 NW12      30.39R
$$

COZ035-036-038>040-280700-
...NORTHERN COLORADO FRONT RANGE...

CITY           SKY/WX    TMP DP  RH WIND       PRES   REMARKS
DENVER INTL AP MOCLDY    65  56  72 SW7       30.17F
DMNS CITY PARK   N/A     65  56  72 SE12      30.17S
AURORA         PTCLDY    62  56  81 S6        30.20F
FRONT RANGE AP MOCLDY    63  54  72 SW7       30.19F
ERIE MUNI ARPT CLOUDY    65  58  80 CALM      30.15F
BOULDER MUN AP CLOUDY    68  52  56 N3        30.16S
CENTENNIAL     PTCLDY    63  55  75 S6        30.20F
BROOMFIELD     CLOUDY    68  50  52 CALM      30.18F
FORT COLLINS   MOCLDY    66  55  68 CALM      30.17R
LONGMONT       MOCLDY    69  58  68 N6        30.17R
$$

COZ041-046-047-076>085-087-088-280700-
...PIKES PEAK/PALMER DIVIDE AND SOUTHERN FOOTHILLS...

CITY           SKY/WX    TMP DP  RH WIND       PRES   REMARKS
COLO. SPRINGS  PTCLDY    62  54  74 CALM      30.26S
A. F. ACADEMY  CLEAR     55  54  95 NW5       30.27F
ELLICOTT       CLEAR    N/A N/A N/A SW3       30.23F
FALCON         CLEAR     58  51  78 MISG      30.30S
FORT CARSON    CLEAR     60  56  87 NW9       30.22F
LIMON          CLEAR     58  56  93 W8        30.16F
MONUMENT HILL  CLEAR     54  50  87 W8        30.30F
TRINIDAD       MOCLDY    61  57  87 W10       30.24F
$$

COZ042>045-048>051-090-091-280700-
...NORTHEAST COLORADO...

CITY           SKY/WX    TMP DP  RH WIND       PRES   REMARKS
GREELEY ARPT   CLOUDY    63  55  77 N6        30.15S
AKRON          CLEAR     61  57  87 W7        30.12S
BURLINGTON     CLOUDY    66  57  72 NW7       30.07F
WRAY           CLEAR     65  61  87 W6        30.04F
STERLING       CLEAR     61  55  82 SW5       30.07S
HOLYOKE        CLEAR     64  55  72 NW6       30.04F
FORT MORGAN    CLEAR     62  56  80 NW6       30.12S
$$

COZ086-089-092>099-280700-
...SOUTHEAST COLORADO...

CITY           SKY/WX    TMP DP  RH WIND       PRES   REMARKS
PUEBLO         PTCLDY    64  60  87 W6        30.16F
LA JUNTA       CLOUDY    69  58  67 W6        30.10F
LAMAR          PTCLDY    66  63  90 SW7       30.03R
SPRINGFIELD      N/A     68  60  75 W7        30.09S
$$



USA.gov is the U.S. government's official web portal to all federal, state and local government web resources and services.